owner,sensor,date,latitude,longitude,vertical_datum,mass_concentration_of_oxygen_in_sea_water,qcFlag 
SCCF RECON,ioos:station:SCCF:13:1,2017-07-01T00:00:00Z,26.5255,-82.0032,2.58,-9999.0,1111122 
SCCF RECON,ioos:station:SCCF:13:1,2017-07-01T01:00:00Z,26.5255,-82.0032,2.57,-9999.0,1111122 
SCCF RECON,ioos:station:SCCF:13:1,2017-07-01T02:00:00Z,26.5255,-82.0032,2.54,-9999.0,1111122 
SCCF RECON,ioos:station:SCCF:13:1,2017-07-01T03:00:00Z,26.5255,-82.0032,2.45,-9999.0,1111122 
SCCF RECON,ioos:station:SCCF:13:1,2017-07-01T04:00:00Z,26.5255,-82.0032,2.38,-9999.0,1111122 
SCCF RECON,ioos:station:SCCF:13:1,2017-07-01T05:00:00Z,26.5255,-82.0032,2.32,-9999.0,1111122 
SCCF RECON,ioos:station:SCCF:13:1,2017-07-01T06:00:00Z,26.5255,-82.0032,2.276,-9999.0,1111122 
SCCF RECON,ioos:station:SCCF:13:1,2017-07-01T07:00:00Z,26.5255,-82.0032,2.28,-9999.0,1111122 
SCCF RECON,ioos:station:SCCF:13:1,2017-07-01T08:00:00Z,26.5255,-82.0032,2.38,-9999.0,1111122 
SCCF RECON,ioos:station:SCCF:13:1,2017-07-01T09:00:00Z,26.5255,-82.0032,2.49,-9999.0,1111122 
SCCF RECON,ioos:station:SCCF:13:1,2017-07-01T10:00:00Z,26.5255,-82.0032,2.56,-9999.0,1111122 
SCCF RECON,ioos:station:SCCF:13:1,2017-07-01T11:00:00Z,26.5255,-82.0032,2.62,-9999.0,1111122 
SCCF RECON,ioos:station:SCCF:13:1,2017-07-01T12:00:00Z,26.5255,-82.0032,2.66,-9999.0,1111122 
SCCF RECON,ioos:station:SCCF:13:1,2017-07-01T13:00:00Z,26.5255,-82.0032,2.68,-9999.0,1111122 
SCCF RECON,ioos:station:SCCF:13:1,2017-07-01T14:00:00Z,26.5255,-82.0032,2.65,-9999.0,1111122 
SCCF RECON,ioos:station:SCCF:13:1,2017-07-01T15:00:00Z,26.5255,-82.0032,2.599,-9999.0,1111122 
SCCF RECON,ioos:station:SCCF:13:1,2017-07-01T16:00:00Z,26.5255,-82.0032,2.53,-9999.0,1111122 
SCCF RECON,ioos:station:SCCF:13:1,2017-07-01T17:00:00Z,26.5255,-82.0032,2.452,-9999.0,1111122 
SCCF RECON,ioos:station:SCCF:13:1,2017-07-01T18:00:00Z,26.5255,-82.0032,2.375,-9999.0,1111122 
SCCF RECON,ioos:station:SCCF:13:1,2017-07-01T19:00:00Z,26.5255,-82.0032,2.326,-9999.0,1111122 
SCCF RECON,ioos:station:SCCF:13:1,2017-07-01T20:00:00Z,26.5255,-82.0032,2.32,-9999.0,1111122 
SCCF RECON,ioos:station:SCCF:13:1,2017-07-01T21:00:00Z,26.5255,-82.0032,2.381,-9999.0,1111122 
SCCF RECON,ioos:station:SCCF:13:1,2017-07-01T22:00:00Z,26.5255,-82.0032,2.45,-9999.0,1111122 
SCCF RECON,ioos:station:SCCF:13:1,2017-07-01T23:00:00Z,26.5255,-82.0032,2.481,-9999.0,1111122 
SCCF RECON,ioos:station:SCCF:13:1,2017-07-02T00:00:00Z,26.5255,-82.0032,2.49,-9999.0,1111122 
SCCF RECON,ioos:station:SCCF:13:1,2017-07-02T01:00:00Z,26.5255,-82.0032,2.519,-9999.0,1111122 
SCCF RECON,ioos:station:SCCF:13:1,2017-07-02T02:00:00Z,26.5255,-82.0032,2.5,-9999.0,1111122 
SCCF RECON,ioos:station:SCCF:13:1,2017-07-02T03:00:00Z,26.5255,-82.0032,2.46,-9999.0,1111122 
SCCF RECON,ioos:station:SCCF:13:1,2017-07-02T04:00:00Z,26.5255,-82.0032,2.44,-9999.0,1111122 
SCCF RECON,ioos:station:SCCF:13:1,2017-07-02T05:00:00Z,26.5255,-82.0032,2.39,-9999.0,1111122 
SCCF RECON,ioos:station:SCCF:13:1,2017-07-02T06:00:00Z,26.5255,-82.0032,2.33,-9999.0,1111122 
SCCF RECON,ioos:station:SCCF:13:1,2017-07-02T07:00:00Z,26.5255,-82.0032,2.3,-9999.0,1111122 
SCCF RECON,ioos:station:SCCF:13:1,2017-07-02T08:00:00Z,26.5255,-82.0032,2.34,-9999.0,1111122 
SCCF RECON,ioos:station:SCCF:13:1,2017-07-02T09:00:00Z,26.5255,-82.0032,2.41,-9999.0,1111122 
SCCF RECON,ioos:station:SCCF:13:1,2017-07-02T10:00:00Z,26.5255,-82.0032,2.52,-9999.0,1111122 
SCCF RECON,ioos:station:SCCF:13:1,2017-07-02T11:00:00Z,26.5255,-82.0032,2.59,-9999.0,1111122 
SCCF RECON,ioos:station:SCCF:13:1,2017-07-02T12:00:00Z,26.5255,-82.0032,2.63,-9999.0,1111122 
SCCF RECON,ioos:station:SCCF:13:1,2017-07-02T13:00:00Z,26.5255,-82.0032,2.67,-9999.0,1111122 
SCCF RECON,ioos:station:SCCF:13:1,2017-07-02T14:00:00Z,26.5255,-82.0032,2.679,-9999.0,1111122 
SCCF RECON,ioos:station:SCCF:13:1,2017-07-02T15:00:00Z,26.5255,-82.0032,2.631,-9999.0,1111122 
SCCF RECON,ioos:station:SCCF:13:1,2017-07-02T16:00:00Z,26.5255,-82.0032,2.571,-9999.0,1111122 
SCCF RECON,ioos:station:SCCF:13:1,2017-07-02T17:00:00Z,26.5255,-82.0032,2.47,-9999.0,1111122 
SCCF RECON,ioos:station:SCCF:13:1,2017-07-02T18:00:00Z,26.5255,-82.0032,2.392,-9999.0,1111122 
SCCF RECON,ioos:station:SCCF:13:1,2017-07-02T19:00:00Z,26.5255,-82.0032,2.32,-9999.0,1111122 
SCCF RECON,ioos:station:SCCF:13:1,2017-07-02T20:00:00Z,26.5255,-82.0032,2.256,-9999.0,1111122 
SCCF RECON,ioos:station:SCCF:13:1,2017-07-02T21:00:00Z,26.5255,-82.0032,2.24,-9999.0,1111122 
SCCF RECON,ioos:station:SCCF:13:1,2017-07-02T22:00:00Z,26.5255,-82.0032,2.312,-9999.0,1111122 
SCCF RECON,ioos:station:SCCF:13:1,2017-07-02T23:00:00Z,26.5255,-82.0032,2.39,-9999.0,1111122 
SCCF RECON,ioos:station:SCCF:13:1,2017-07-03T00:00:00Z,26.5255,-82.0032,2.43,-9999.0,1111122 
SCCF RECON,ioos:station:SCCF:13:1,2017-07-03T01:00:00Z,26.5255,-82.0032,2.486,-9999.0,1111122 
SCCF RECON,ioos:station:SCCF:13:1,2017-07-03T02:00:00Z,26.5255,-82.0032,2.51,-9999.0,1111122 
SCCF RECON,ioos:station:SCCF:13:1,2017-07-03T03:00:00Z,26.5255,-82.0032,2.51,-9999.0,1111122 
SCCF RECON,ioos:station:SCCF:13:1,2017-07-03T04:00:00Z,26.5255,-82.0032,2.51,-9999.0,1111122 
SCCF RECON,ioos:station:SCCF:13:1,2017-07-03T05:00:00Z,26.5255,-82.0032,2.46,-9999.0,1111122 
SCCF RECON,ioos:station:SCCF:13:1,2017-07-03T06:00:00Z,26.5255,-82.0032,2.41,-9999.0,1111122 
SCCF RECON,ioos:station:SCCF:13:1,2017-07-03T07:00:00Z,26.5255,-82.0032,2.35,-9999.0,1111122 
SCCF RECON,ioos:station:SCCF:13:1,2017-07-03T08:00:00Z,26.5255,-82.0032,2.32,-9999.0,1111122 
SCCF RECON,ioos:station:SCCF:13:1,2017-07-03T09:00:00Z,26.5255,-82.0032,2.37,-9999.0,1111122 
SCCF RECON,ioos:station:SCCF:13:1,2017-07-03T10:00:00Z,26.5255,-82.0032,2.46,-9999.0,1111122 
SCCF RECON,ioos:station:SCCF:13:1,2017-07-03T11:00:00Z,26.5255,-82.0032,2.538,-9999.0,1111122 
SCCF RECON,ioos:station:SCCF:13:1,2017-07-03T12:00:00Z,26.5255,-82.0032,2.61,-9999.0,1111122 
SCCF RECON,ioos:station:SCCF:13:1,2017-07-03T13:00:00Z,26.5255,-82.0032,2.661,-9999.0,1111122 
SCCF RECON,ioos:station:SCCF:13:1,2017-07-03T14:00:00Z,26.5255,-82.0032,2.709,-9999.0,1111122 
SCCF RECON,ioos:station:SCCF:13:1,2017-07-03T15:00:00Z,26.5255,-82.0032,2.715,-9999.0,1111122 
SCCF RECON,ioos:station:SCCF:13:1,2017-07-03T16:00:00Z,26.5255,-82.0032,2.666,-9999.0,1111122 
SCCF RECON,ioos:station:SCCF:13:1,2017-07-03T17:00:00Z,26.5255,-82.0032,2.56,-9999.0,1111122 
SCCF RECON,ioos:station:SCCF:13:1,2017-07-03T18:00:00Z,26.5255,-82.0032,2.431,-9999.0,1111122 
SCCF RECON,ioos:station:SCCF:13:1,2017-07-03T19:00:00Z,26.5255,-82.0032,2.36,-9999.0,1111122 
SCCF RECON,ioos:station:SCCF:13:1,2017-07-03T20:00:00Z,26.5255,-82.0032,2.297,-9999.0,1111122 
SCCF RECON,ioos:station:SCCF:13:1,2017-07-03T21:00:00Z,26.5255,-82.0032,2.231,-9999.0,1111122 
SCCF RECON,ioos:station:SCCF:13:1,2017-07-03T22:00:00Z,26.5255,-82.0032,2.206,-9999.0,1111122 
SCCF RECON,ioos:station:SCCF:13:1,2017-07-03T23:00:00Z,26.5255,-82.0032,2.275,-9999.0,1111122 
SCCF RECON,ioos:station:SCCF:13:1,2017-07-04T00:00:00Z,26.5255,-82.0032,2.35,-9999.0,1111122 
SCCF RECON,ioos:station:SCCF:13:1,2017-07-04T01:00:00Z,26.5255,-82.0032,2.442,-9999.0,1111122 
SCCF RECON,ioos:station:SCCF:13:1,2017-07-04T02:00:00Z,26.5255,-82.0032,2.48,-9999.0,1111122 
SCCF RECON,ioos:station:SCCF:13:1,2017-07-04T03:00:00Z,26.5255,-82.0032,2.5,-9999.0,1111122 
SCCF RECON,ioos:station:SCCF:13:1,2017-07-04T04:00:00Z,26.5255,-82.0032,2.5,-9999.0,1111122 
SCCF RECON,ioos:station:SCCF:13:1,2017-07-04T05:00:00Z,26.5255,-82.0032,2.51,-9999.0,1111122 
SCCF RECON,ioos:station:SCCF:13:1,2017-07-04T06:00:00Z,26.5255,-82.0032,2.503,-9999.0,1111122 
SCCF RECON,ioos:station:SCCF:13:1,2017-07-04T07:00:00Z,26.5255,-82.0032,2.45,-9999.0,1111122 
SCCF RECON,ioos:station:SCCF:13:1,2017-07-04T08:00:00Z,26.5255,-82.0032,2.37,-9999.0,1111122 
SCCF RECON,ioos:station:SCCF:13:1,2017-07-04T09:00:00Z,26.5255,-82.0032,2.37,-9999.0,1111122 
SCCF RECON,ioos:station:SCCF:13:1,2017-07-04T10:00:00Z,26.5255,-82.0032,2.45,-9999.0,1111122 
SCCF RECON,ioos:station:SCCF:13:1,2017-07-04T11:00:00Z,26.5255,-82.0032,2.55,-9999.0,1111122 
SCCF RECON,ioos:station:SCCF:13:1,2017-07-04T12:00:00Z,26.5255,-82.0032,2.61,-9999.0,1111122 
SCCF RECON,ioos:station:SCCF:13:1,2017-07-04T13:00:00Z,26.5255,-82.0032,2.664,-9999.0,1111122 
SCCF RECON,ioos:station:SCCF:13:1,2017-07-04T14:00:00Z,26.5255,-82.0032,2.7,-9999.0,1111122 
SCCF RECON,ioos:station:SCCF:13:1,2017-07-04T15:00:00Z,26.5255,-82.0032,2.74,-9999.0,1111122 
SCCF RECON,ioos:station:SCCF:13:1,2017-07-04T16:00:00Z,26.5255,-82.0032,2.742,-9999.0,1111122 
SCCF RECON,ioos:station:SCCF:13:1,2017-07-04T17:00:00Z,26.5255,-82.0032,2.65,-9999.0,1111122 
SCCF RECON,ioos:station:SCCF:13:1,2017-07-04T18:00:00Z,26.5255,-82.0032,2.51,-9999.0,1111122 
SCCF RECON,ioos:station:SCCF:13:1,2017-07-04T19:00:00Z,26.5255,-82.0032,2.421,-9999.0,1111122 
SCCF RECON,ioos:station:SCCF:13:1,2017-07-04T20:00:00Z,26.5255,-82.0032,2.358,-9999.0,1111122 
SCCF RECON,ioos:station:SCCF:13:1,2017-07-04T21:00:00Z,26.5255,-82.0032,2.27,-9999.0,1111122 
SCCF RECON,ioos:station:SCCF:13:1,2017-07-04T22:00:00Z,26.5255,-82.0032,2.19,-9999.0,1111122 
SCCF RECON,ioos:station:SCCF:13:1,2017-07-04T23:00:00Z,26.5255,-82.0032,2.18,-9999.0,1111122 
SCCF RECON,ioos:station:SCCF:13:1,2017-07-05T00:00:00Z,26.5255,-82.0032,2.26,-9999.0,1111122 
SCCF RECON,ioos:station:SCCF:13:1,2017-07-05T01:00:00Z,26.5255,-82.0032,2.352,-9999.0,1111122 
SCCF RECON,ioos:station:SCCF:13:1,2017-07-05T02:00:00Z,26.5255,-82.0032,2.43,-9999.0,1111122 
SCCF RECON,ioos:station:SCCF:13:1,2017-07-05T03:00:00Z,26.5255,-82.0032,2.487,-9999.0,1111122 
SCCF RECON,ioos:station:SCCF:13:1,2017-07-05T04:00:00Z,26.5255,-82.0032,2.539,-9999.0,1111122 
SCCF RECON,ioos:station:SCCF:13:1,2017-07-05T05:00:00Z,26.5255,-82.0032,2.54,-9999.0,1111122 
SCCF RECON,ioos:station:SCCF:13:1,2017-07-05T06:00:00Z,26.5255,-82.0032,2.51,-9999.0,1111122 
SCCF RECON,ioos:station:SCCF:13:1,2017-07-05T07:00:00Z,26.5255,-82.0032,2.49,-9999.0,1111122 
SCCF RECON,ioos:station:SCCF:13:1,2017-07-05T08:00:00Z,26.5255,-82.0032,2.43,-9999.0,1111122 
SCCF RECON,ioos:station:SCCF:13:1,2017-07-05T09:00:00Z,26.5255,-82.0032,2.41,-9999.0,1111122 
SCCF RECON,ioos:station:SCCF:13:1,2017-07-05T10:00:00Z,26.5255,-82.0032,2.43,-9999.0,1111122 
SCCF RECON,ioos:station:SCCF:13:1,2017-07-05T11:00:00Z,26.5255,-82.0032,2.5,-9999.0,1111122 
SCCF RECON,ioos:station:SCCF:13:1,2017-07-05T12:00:00Z,26.5255,-82.0032,2.57,-9999.0,1111122 
SCCF RECON,ioos:station:SCCF:13:1,2017-07-05T13:00:00Z,26.5255,-82.0032,2.63,-9999.0,1111122 
SCCF RECON,ioos:station:SCCF:13:1,2017-07-05T14:00:00Z,26.5255,-82.0032,2.692,-9999.0,1111122 
SCCF RECON,ioos:station:SCCF:13:1,2017-07-05T15:00:00Z,26.5255,-82.0032,2.75,-9999.0,1111122 
SCCF RECON,ioos:station:SCCF:13:1,2017-07-05T16:00:00Z,26.5255,-82.0032,2.77,-9999.0,1111122 
SCCF RECON,ioos:station:SCCF:13:1,2017-07-05T17:00:00Z,26.5255,-82.0032,2.7,-9999.0,1111122 
SCCF RECON,ioos:station:SCCF:13:1,2017-07-05T18:00:00Z,26.5255,-82.0032,2.59,-9999.0,1111122 
SCCF RECON,ioos:station:SCCF:13:1,2017-07-05T19:00:00Z,26.5255,-82.0032,2.48,-9999.0,1111122 
SCCF RECON,ioos:station:SCCF:13:1,2017-07-05T20:00:00Z,26.5255,-82.0032,2.401,-9999.0,1111122 
SCCF RECON,ioos:station:SCCF:13:1,2017-07-05T21:00:00Z,26.5255,-82.0032,2.32,-9999.0,1111122 
SCCF RECON,ioos:station:SCCF:13:1,2017-07-05T22:00:00Z,26.5255,-82.0032,2.218,-9999.0,1111122 
SCCF RECON,ioos:station:SCCF:13:1,2017-07-05T23:00:00Z,26.5255,-82.0032,2.171,-9999.0,1111122 
SCCF RECON,ioos:station:SCCF:13:1,2017-07-06T00:00:00Z,26.5255,-82.0032,2.17,-9999.0,1111122 
SCCF RECON,ioos:station:SCCF:13:1,2017-07-06T01:00:00Z,26.5255,-82.0032,2.29,-9999.0,1111122 
SCCF RECON,ioos:station:SCCF:13:1,2017-07-06T02:00:00Z,26.5255,-82.0032,2.38,-9999.0,1111122 
SCCF RECON,ioos:station:SCCF:13:1,2017-07-06T03:00:00Z,26.5255,-82.0032,2.46,-9999.0,1111122 
SCCF RECON,ioos:station:SCCF:13:1,2017-07-06T04:00:00Z,26.5255,-82.0032,2.51,-9999.0,1111122 
SCCF RECON,ioos:station:SCCF:13:1,2017-07-06T05:00:00Z,26.5255,-82.0032,2.56,-9999.0,1111122 
SCCF RECON,ioos:station:SCCF:13:1,2017-07-06T06:00:00Z,26.5255,-82.0032,2.56,-9999.0,1111122 
SCCF RECON,ioos:station:SCCF:13:1,2017-07-06T07:00:00Z,26.5255,-82.0032,2.52,-9999.0,1111122 
SCCF RECON,ioos:station:SCCF:13:1,2017-07-06T08:00:00Z,26.5255,-82.0032,2.47,-9999.0,1111122 
SCCF RECON,ioos:station:SCCF:13:1,2017-07-06T09:00:00Z,26.5255,-82.0032,2.41,-9999.0,1111122 
SCCF RECON,ioos:station:SCCF:13:1,2017-07-06T10:00:00Z,26.5255,-82.0032,2.36,-9999.0,1111122 
SCCF RECON,ioos:station:SCCF:13:1,2017-07-06T11:00:00Z,26.5255,-82.0032,2.36,-9999.0,1111122 
SCCF RECON,ioos:station:SCCF:13:1,2017-07-06T12:00:00Z,26.5255,-82.0032,2.479,-9999.0,1111122 
SCCF RECON,ioos:station:SCCF:13:1,2017-07-06T13:00:00Z,26.5255,-82.0032,2.61,-9999.0,1111122 
SCCF RECON,ioos:station:SCCF:13:1,2017-07-06T14:00:00Z,26.5255,-82.0032,2.69,-9999.0,1111122 
SCCF RECON,ioos:station:SCCF:13:1,2017-07-06T15:00:00Z,26.5255,-82.0032,2.74,-9999.0,1111122 
SCCF RECON,ioos:station:SCCF:13:1,2017-07-06T16:00:00Z,26.5255,-82.0032,2.761,-9999.0,1111122 
SCCF RECON,ioos:station:SCCF:13:1,2017-07-06T17:00:00Z,26.5255,-82.0032,2.74,-9999.0,1111122 
SCCF RECON,ioos:station:SCCF:13:1,2017-07-06T18:00:00Z,26.5255,-82.0032,2.65,-9999.0,1111122 
SCCF RECON,ioos:station:SCCF:13:1,2017-07-06T19:00:00Z,26.5255,-82.0032,2.532,-9999.0,1111122 
SCCF RECON,ioos:station:SCCF:13:1,2017-07-06T20:00:00Z,26.5255,-82.0032,2.448,-9999.0,1111122 
SCCF RECON,ioos:station:SCCF:13:1,2017-07-06T21:00:00Z,26.5255,-82.0032,2.33,-9999.0,1111122 
SCCF RECON,ioos:station:SCCF:13:1,2017-07-06T22:00:00Z,26.5255,-82.0032,2.246,-9999.0,1111122 
SCCF RECON,ioos:station:SCCF:13:1,2017-07-06T23:00:00Z,26.5255,-82.0032,2.176,-9999.0,1111122 
SCCF RECON,ioos:station:SCCF:13:1,2017-07-07T00:00:00Z,26.5255,-82.0032,2.121,-9999.0,1111122 
SCCF RECON,ioos:station:SCCF:13:1,2017-07-07T01:00:00Z,26.5255,-82.0032,2.19,-9999.0,1111122 
SCCF RECON,ioos:station:SCCF:13:1,2017-07-07T02:00:00Z,26.5255,-82.0032,2.31,-9999.0,1111122 
SCCF RECON,ioos:station:SCCF:13:1,2017-07-07T03:00:00Z,26.5255,-82.0032,2.4,-9999.0,1111122 
SCCF RECON,ioos:station:SCCF:13:1,2017-07-07T04:00:00Z,26.5255,-82.0032,2.46,-9999.0,1111122 
SCCF RECON,ioos:station:SCCF:13:1,2017-07-07T05:00:00Z,26.5255,-82.0032,2.51,-9999.0,1111122 
SCCF RECON,ioos:station:SCCF:13:1,2017-07-07T06:00:00Z,26.5255,-82.0032,2.51,-9999.0,1111122 
SCCF RECON,ioos:station:SCCF:13:1,2017-07-07T07:00:00Z,26.5255,-82.0032,2.49,-9999.0,1111122 
SCCF RECON,ioos:station:SCCF:13:1,2017-07-07T08:00:00Z,26.5255,-82.0032,2.49,-9999.0,1111122 
SCCF RECON,ioos:station:SCCF:13:1,2017-07-07T09:00:00Z,26.5255,-82.0032,2.48,-9999.0,1111122 
SCCF RECON,ioos:station:SCCF:13:1,2017-07-07T10:00:00Z,26.5255,-82.0032,2.44,-9999.0,1111122 
SCCF RECON,ioos:station:SCCF:13:1,2017-07-07T11:00:00Z,26.5255,-82.0032,2.42,-9999.0,1111122 
SCCF RECON,ioos:station:SCCF:13:1,2017-07-07T12:00:00Z,26.5255,-82.0032,2.499,-9999.0,1111122 
SCCF RECON,ioos:station:SCCF:13:1,2017-07-07T13:00:00Z,26.5255,-82.0032,2.58,-9999.0,1111122 
SCCF RECON,ioos:station:SCCF:13:1,2017-07-07T14:00:00Z,26.5255,-82.0032,2.665,-9999.0,1111122 
SCCF RECON,ioos:station:SCCF:13:1,2017-07-07T15:00:00Z,26.5255,-82.0032,2.73,-9999.0,1111122 
SCCF RECON,ioos:station:SCCF:13:1,2017-07-07T16:00:00Z,26.5255,-82.0032,2.784,-9999.0,1111122 
SCCF RECON,ioos:station:SCCF:13:1,2017-07-07T17:00:00Z,26.5255,-82.0032,2.801,-9999.0,1111122 
SCCF RECON,ioos:station:SCCF:13:1,2017-07-07T18:00:00Z,26.5255,-82.0032,2.75,-9999.0,1111122 
SCCF RECON,ioos:station:SCCF:13:1,2017-07-07T19:00:00Z,26.5255,-82.0032,2.647,-9999.0,1111122 
SCCF RECON,ioos:station:SCCF:13:1,2017-07-07T20:00:00Z,26.5255,-82.0032,2.511,-9999.0,1111122 
SCCF RECON,ioos:station:SCCF:13:1,2017-07-07T21:00:00Z,26.5255,-82.0032,2.418,-9999.0,1111122 
SCCF RECON,ioos:station:SCCF:13:1,2017-07-07T22:00:00Z,26.5255,-82.0032,2.32,-9999.0,1111122 
SCCF RECON,ioos:station:SCCF:13:1,2017-07-07T23:00:00Z,26.5255,-82.0032,2.229,-9999.0,1111122 
SCCF RECON,ioos:station:SCCF:13:1,2017-07-08T00:00:00Z,26.5255,-82.0032,2.165,-9999.0,1111122 
SCCF RECON,ioos:station:SCCF:13:1,2017-07-08T01:00:00Z,26.5255,-82.0032,2.17,-9999.0,1111122 
SCCF RECON,ioos:station:SCCF:13:1,2017-07-08T02:00:00Z,26.5255,-82.0032,2.25,-9999.0,1111122 
SCCF RECON,ioos:station:SCCF:13:1,2017-07-08T03:00:00Z,26.5255,-82.0032,2.38,-9999.0,1111122 
SCCF RECON,ioos:station:SCCF:13:1,2017-07-08T04:00:00Z,26.5255,-82.0032,2.47,-9999.0,1111122 
SCCF RECON,ioos:station:SCCF:13:1,2017-07-08T05:00:00Z,26.5255,-82.0032,2.53,-9999.0,1111122 
SCCF RECON,ioos:station:SCCF:13:1,2017-07-08T06:00:00Z,26.5255,-82.0032,2.578,-9999.0,1111122 
SCCF RECON,ioos:station:SCCF:13:1,2017-07-08T07:00:00Z,26.5255,-82.0032,2.58,-9999.0,1111122 
SCCF RECON,ioos:station:SCCF:13:1,2017-07-08T08:00:00Z,26.5255,-82.0032,2.521,-9999.0,1111122 
SCCF RECON,ioos:station:SCCF:13:1,2017-07-08T09:00:00Z,26.5255,-82.0032,2.48,-9999.0,1111122 
SCCF RECON,ioos:station:SCCF:13:1,2017-07-08T10:00:00Z,26.5255,-82.0032,2.438,-9999.0,1111122 
SCCF RECON,ioos:station:SCCF:13:1,2017-07-08T11:00:00Z,26.5255,-82.0032,2.42,-9999.0,1111122 
SCCF RECON,ioos:station:SCCF:13:1,2017-07-08T12:00:00Z,26.5255,-82.0032,2.45,-9999.0,1111122 
SCCF RECON,ioos:station:SCCF:13:1,2017-07-08T13:00:00Z,26.5255,-82.0032,2.53,-9999.0,1111122 
SCCF RECON,ioos:station:SCCF:13:1,2017-07-08T14:00:00Z,26.5255,-82.0032,2.631,-9999.0,1111122 
SCCF RECON,ioos:station:SCCF:13:1,2017-07-08T15:00:00Z,26.5255,-82.0032,2.729,-9999.0,1111122 
SCCF RECON,ioos:station:SCCF:13:1,2017-07-08T16:00:00Z,26.5255,-82.0032,2.769,-9999.0,1111122 
SCCF RECON,ioos:station:SCCF:13:1,2017-07-08T17:00:00Z,26.5255,-82.0032,2.78,-9999.0,1111122 
SCCF RECON,ioos:station:SCCF:13:1,2017-07-08T18:00:00Z,26.5255,-82.0032,2.774,-9999.0,1111122 
SCCF RECON,ioos:station:SCCF:13:1,2017-07-08T19:00:00Z,26.5255,-82.0032,2.699,-9999.0,1111122 
SCCF RECON,ioos:station:SCCF:13:1,2017-07-08T20:00:00Z,26.5255,-82.0032,2.59,-9999.0,1111122 
SCCF RECON,ioos:station:SCCF:13:1,2017-07-08T21:00:00Z,26.5255,-82.0032,2.472,-9999.0,1111122 
SCCF RECON,ioos:station:SCCF:13:1,2017-07-08T22:00:00Z,26.5255,-82.0032,2.4,-9999.0,1111122 
SCCF RECON,ioos:station:SCCF:13:1,2017-07-08T23:00:00Z,26.5255,-82.0032,2.29,-9999.0,1111122 
SCCF RECON,ioos:station:SCCF:13:1,2017-07-09T00:00:00Z,26.5255,-82.0032,2.2,-9999.0,1111122 
SCCF RECON,ioos:station:SCCF:13:1,2017-07-09T01:00:00Z,26.5255,-82.0032,2.141,-9999.0,1111122 
SCCF RECON,ioos:station:SCCF:13:1,2017-07-09T02:00:00Z,26.5255,-82.0032,2.19,-9999.0,1111122 
SCCF RECON,ioos:station:SCCF:13:1,2017-07-09T03:00:00Z,26.5255,-82.0032,2.32,-9999.0,1111122 
SCCF RECON,ioos:station:SCCF:13:1,2017-07-09T04:00:00Z,26.5255,-82.0032,2.4,-9999.0,1111122 
SCCF RECON,ioos:station:SCCF:13:1,2017-07-09T05:00:00Z,26.5255,-82.0032,2.46,-9999.0,1111122 
SCCF RECON,ioos:station:SCCF:13:1,2017-07-09T06:00:00Z,26.5255,-82.0032,2.52,-9999.0,1111122 
SCCF RECON,ioos:station:SCCF:13:1,2017-07-09T07:00:00Z,26.5255,-82.0032,2.54,-9999.0,1111122 
SCCF RECON,ioos:station:SCCF:13:1,2017-07-09T08:00:00Z,26.5255,-82.0032,2.54,-9999.0,1111122 
SCCF RECON,ioos:station:SCCF:13:1,2017-07-09T09:00:00Z,26.5255,-82.0032,2.52,-9999.0,1111122 
SCCF RECON,ioos:station:SCCF:13:1,2017-07-09T10:00:00Z,26.5255,-82.0032,2.48,-9999.0,1111122 
SCCF RECON,ioos:station:SCCF:13:1,2017-07-09T11:00:00Z,26.5255,-82.0032,2.43,-9999.0,1111122 
SCCF RECON,ioos:station:SCCF:13:1,2017-07-09T12:00:00Z,26.5255,-82.0032,2.42,-9999.0,1111122 
SCCF RECON,ioos:station:SCCF:13:1,2017-07-09T13:00:00Z,26.5255,-82.0032,2.44,-9999.0,1111122 
SCCF RECON,ioos:station:SCCF:13:1,2017-07-09T14:00:00Z,26.5255,-82.0032,2.55,-9999.0,1111122 
SCCF RECON,ioos:station:SCCF:13:1,2017-07-09T15:00:00Z,26.5255,-82.0032,2.66,-9999.0,1111122 
SCCF RECON,ioos:station:SCCF:13:1,2017-07-09T16:00:00Z,26.5255,-82.0032,2.74,-9999.0,1111122 
SCCF RECON,ioos:station:SCCF:13:1,2017-07-09T17:00:00Z,26.5255,-82.0032,2.78,-9999.0,1111122 
SCCF RECON,ioos:station:SCCF:13:1,2017-07-09T18:00:00Z,26.5255,-82.0032,2.8,-9999.0,1111122 
SCCF RECON,ioos:station:SCCF:13:1,2017-07-09T19:00:00Z,26.5255,-82.0032,2.751,-9999.0,1111122 
SCCF RECON,ioos:station:SCCF:13:1,2017-07-09T20:00:00Z,26.5255,-82.0032,2.647,-9999.0,1111122 
SCCF RECON,ioos:station:SCCF:13:1,2017-07-09T21:00:00Z,26.5255,-82.0032,2.52,-9999.0,1111122 
SCCF RECON,ioos:station:SCCF:13:1,2017-07-09T22:00:00Z,26.5255,-82.0032,2.41,-9999.0,1111122 
SCCF RECON,ioos:station:SCCF:13:1,2017-07-09T23:00:00Z,26.5255,-82.0032,2.318,-9999.0,1111122 
SCCF RECON,ioos:station:SCCF:13:1,2017-07-10T00:00:00Z,26.5255,-82.0032,2.234,-9999.0,1111122 
SCCF RECON,ioos:station:SCCF:13:1,2017-07-10T01:00:00Z,26.5255,-82.0032,2.161,-9999.0,1111122 
SCCF RECON,ioos:station:SCCF:13:1,2017-07-10T02:00:00Z,26.5255,-82.0032,2.14,-9999.0,1111122 
SCCF RECON,ioos:station:SCCF:13:1,2017-07-10T03:00:00Z,26.5255,-82.0032,2.244,-9999.0,1111122 
SCCF RECON,ioos:station:SCCF:13:1,2017-07-10T04:00:00Z,26.5255,-82.0032,2.36,-9999.0,1111122 
SCCF RECON,ioos:station:SCCF:13:1,2017-07-10T05:00:00Z,26.5255,-82.0032,2.43,-9999.0,1111122 
SCCF RECON,ioos:station:SCCF:13:1,2017-07-10T06:00:00Z,26.5255,-82.0032,2.49,-9999.0,1111122 
SCCF RECON,ioos:station:SCCF:13:1,2017-07-10T07:00:00Z,26.5255,-82.0032,2.54,-9999.0,1111122 
SCCF RECON,ioos:station:SCCF:13:1,2017-07-10T08:00:00Z,26.5255,-82.0032,2.55,-9999.0,1111122 
SCCF RECON,ioos:station:SCCF:13:1,2017-07-10T09:00:00Z,26.5255,-82.0032,2.521,-9999.0,1111122 
SCCF RECON,ioos:station:SCCF:13:1,2017-07-10T10:00:00Z,26.5255,-82.0032,2.5,-9999.0,1111122 
SCCF RECON,ioos:station:SCCF:13:1,2017-07-10T11:00:00Z,26.5255,-82.0032,2.47,-9999.0,1111122 
SCCF RECON,ioos:station:SCCF:13:1,2017-07-10T12:00:00Z,26.5255,-82.0032,2.42,-9999.0,1111122 
SCCF RECON,ioos:station:SCCF:13:1,2017-07-10T13:00:00Z,26.5255,-82.0032,2.37,-9999.0,1111122 
SCCF RECON,ioos:station:SCCF:13:1,2017-07-10T14:00:00Z,26.5255,-82.0032,2.455,-9999.0,1111122 
SCCF RECON,ioos:station:SCCF:13:1,2017-07-10T15:00:00Z,26.5255,-82.0032,2.58,-9999.0,1111122 
SCCF RECON,ioos:station:SCCF:13:1,2017-07-10T16:00:00Z,26.5255,-82.0032,2.68,-9999.0,1111122 
SCCF RECON,ioos:station:SCCF:13:1,2017-07-10T17:00:00Z,26.5255,-82.0032,2.76,-9999.0,1111122 
SCCF RECON,ioos:station:SCCF:13:1,2017-07-10T18:00:00Z,26.5255,-82.0032,2.79,-9999.0,1111122 
SCCF RECON,ioos:station:SCCF:13:1,2017-07-10T19:00:00Z,26.5255,-82.0032,2.86,-9999.0,1111122 
SCCF RECON,ioos:station:SCCF:13:1,2017-07-10T20:00:00Z,26.5255,-82.0032,2.715,-9999.0,1111122 
SCCF RECON,ioos:station:SCCF:13:1,2017-07-10T21:00:00Z,26.5255,-82.0032,2.63,-9999.0,1111122 
SCCF RECON,ioos:station:SCCF:13:1,2017-07-10T22:00:00Z,26.5255,-82.0032,2.526,-9999.0,1111122 
SCCF RECON,ioos:station:SCCF:13:1,2017-07-10T23:00:00Z,26.5255,-82.0032,2.409,-9999.0,1111122 
SCCF RECON,ioos:station:SCCF:13:1,2017-07-11T00:00:00Z,26.5255,-82.0032,2.318,-9999.0,1111122 
SCCF RECON,ioos:station:SCCF:13:1,2017-07-11T01:00:00Z,26.5255,-82.0032,2.24,-9999.0,1111122 
SCCF RECON,ioos:station:SCCF:13:1,2017-07-11T02:00:00Z,26.5255,-82.0032,2.189,-9999.0,1111122 
SCCF RECON,ioos:station:SCCF:13:1,2017-07-11T03:00:00Z,26.5255,-82.0032,2.189,-9999.0,1111122 
SCCF RECON,ioos:station:SCCF:13:1,2017-07-11T04:00:00Z,26.5255,-82.0032,2.28,-9999.0,1111122 
SCCF RECON,ioos:station:SCCF:13:1,2017-07-11T05:00:00Z,26.5255,-82.0032,2.41,-9999.0,1111122 
SCCF RECON,ioos:station:SCCF:13:1,2017-07-11T06:00:00Z,26.5255,-82.0032,2.48,-9999.0,1111122 
SCCF RECON,ioos:station:SCCF:13:1,2017-07-11T07:00:00Z,26.5255,-82.0032,2.52,-9999.0,1111122 
SCCF RECON,ioos:station:SCCF:13:1,2017-07-11T08:00:00Z,26.5255,-82.0032,2.53,-9999.0,1111122 
SCCF RECON,ioos:station:SCCF:13:1,2017-07-11T09:00:00Z,26.5255,-82.0032,2.53,-9999.0,1111122 
SCCF RECON,ioos:station:SCCF:13:1,2017-07-11T10:00:00Z,26.5255,-82.0032,2.53,-9999.0,1111122 
SCCF RECON,ioos:station:SCCF:13:1,2017-07-11T11:00:00Z,26.5255,-82.0032,2.459,-9999.0,1111122 
SCCF RECON,ioos:station:SCCF:13:1,2017-07-11T12:00:00Z,26.5255,-82.0032,2.39,-9999.0,1111122 